{"data":{"norad_id":49263,"epoch":"2026-07-15T19:07:02.295840Z","epoch_age_seconds":5867557,"freshness":"OLD","line1":"1 49263U 21088D   26196.79655435  .03733040  24724-5  10683-2 0  9995","line2":"2 49263  97.3958 299.2359 0012958 282.5095  77.4748 16.27350180267131","mean_motion":16.2735018,"eccentricity":0.0012958,"inclination_deg":97.3958,"raan_deg":299.2359,"arg_perigee_deg":282.5095,"mean_anomaly_deg":77.4748,"bstar":0.0010683,"rev_number":26713,"period_min":88.487408407697,"perigee_km":191.14703938271,"apogee_km":208.19408546148,"semimajor_km":6577.8075624221,"source":"CELESTRAK","updated_at":"2026-07-16T09:00:22.523394Z"}}